Year,Month,Day,Hour,Minute,Value (Times are PST for temperature in C)
2020,03,30,00,00,5.30
2020,03,30,00,01,5.40
2020,03,30,00,02,5.40
2020,03,30,00,03,5.40
2020,03,30,00,04,5.40
2020,03,30,00,05,5.50
2020,03,30,00,06,5.50
2020,03,30,00,07,5.50
2020,03,30,00,08,5.50
2020,03,30,00,09,5.50
2020,03,30,00,10,5.50
2020,03,30,00,11,5.50
2020,03,30,00,12,5.60
2020,03,30,00,13,5.60
2020,03,30,00,14,5.60
2020,03,30,00,15,5.60
2020,03,30,00,16,5.60
2020,03,30,00,17,5.60
2020,03,30,00,18,5.60
2020,03,30,00,19,5.60
2020,03,30,00,20,5.60
2020,03,30,00,21,5.60
2020,03,30,00,22,5.60
2020,03,30,00,23,5.60
2020,03,30,00,24,5.70
2020,03,30,00,25,5.70
2020,03,30,00,26,5.70
2020,03,30,00,27,5.70
2020,03,30,00,28,5.70
2020,03,30,00,29,5.70
2020,03,30,00,30,5.70
2020,03,30,00,31,5.70
2020,03,30,00,32,5.70
2020,03,30,00,33,5.70
2020,03,30,00,34,5.70
2020,03,30,00,35,5.70
2020,03,30,00,36,5.70
2020,03,30,00,37,5.70
2020,03,30,00,38,5.80
2020,03,30,00,39,5.80
2020,03,30,00,40,5.80
2020,03,30,00,41,5.80
2020,03,30,00,42,5.80
2020,03,30,00,43,5.80
2020,03,30,00,44,5.80
2020,03,30,00,45,5.80
2020,03,30,00,46,5.90
2020,03,30,00,47,5.90
2020,03,30,00,48,5.90
2020,03,30,00,49,5.90
2020,03,30,00,50,5.90
2020,03,30,00,51,5.90
2020,03,30,00,52,5.90
2020,03,30,00,53,5.90
2020,03,30,00,54,5.90
2020,03,30,00,55,5.90
2020,03,30,00,56,5.90
2020,03,30,00,57,6.00
2020,03,30,00,58,6.00
2020,03,30,00,59,6.00
2020,03,30,01,00,6.00
2020,03,30,01,01,6.00
2020,03,30,01,02,6.00
2020,03,30,01,03,6.00
2020,03,30,01,04,6.00
2020,03,30,01,05,6.00
2020,03,30,01,06,6.00
2020,03,30,01,07,6.00
2020,03,30,01,08,6.00
2020,03,30,01,09,6.00
2020,03,30,01,10,6.00
2020,03,30,01,11,6.00
2020,03,30,01,12,6.00
2020,03,30,01,13,6.10
2020,03,30,01,14,6.10
2020,03,30,01,15,6.10
2020,03,30,01,16,6.10
2020,03,30,01,17,6.10
2020,03,30,01,18,6.10
2020,03,30,01,19,6.10
2020,03,30,01,20,6.10
2020,03,30,01,21,6.10
2020,03,30,01,22,6.10
2020,03,30,01,23,6.10
2020,03,30,01,24,6.10
2020,03,30,01,25,6.10
2020,03,30,01,26,6.00
2020,03,30,01,27,6.00
2020,03,30,01,28,6.00
2020,03,30,01,29,5.90
2020,03,30,01,30,5.90
2020,03,30,01,31,5.90
2020,03,30,01,32,5.80
2020,03,30,01,33,5.80
2020,03,30,01,34,5.80
2020,03,30,01,35,5.80
2020,03,30,01,36,5.70
2020,03,30,01,37,5.70
2020,03,30,01,38,5.70
2020,03,30,01,39,5.70
2020,03,30,01,40,5.70
2020,03,30,01,41,5.70
2020,03,30,01,42,5.70
2020,03,30,01,43,5.70
2020,03,30,01,44,5.70
2020,03,30,01,45,5.70
2020,03,30,01,46,5.70
2020,03,30,01,47,5.70
2020,03,30,01,48,5.70
2020,03,30,01,49,5.70
2020,03,30,01,50,5.70
2020,03,30,01,51,5.80
2020,03,30,01,52,5.80
2020,03,30,01,53,5.90
2020,03,30,01,54,5.90
2020,03,30,01,55,6.00
2020,03,30,01,56,6.10
2020,03,30,01,57,6.10
2020,03,30,01,58,6.10
2020,03,30,01,59,6.20
2020,03,30,02,00,6.20
2020,03,30,02,01,6.30
2020,03,30,02,02,6.30
2020,03,30,02,03,6.30
2020,03,30,02,04,6.30
2020,03,30,02,05,6.40
2020,03,30,02,06,6.50
2020,03,30,02,07,6.50
2020,03,30,02,08,6.60
2020,03,30,02,09,6.60
2020,03,30,02,10,6.60
2020,03,30,02,11,6.70
2020,03,30,02,12,6.70
2020,03,30,02,13,6.70
2020,03,30,02,14,6.80
2020,03,30,02,15,6.80
2020,03,30,02,16,6.90
2020,03,30,02,17,6.90
2020,03,30,02,18,7.00
2020,03,30,02,19,7.00
2020,03,30,02,20,7.10
2020,03,30,02,21,7.10
2020,03,30,02,22,7.10
2020,03,30,02,23,7.20
2020,03,30,02,24,7.20
2020,03,30,02,25,7.30
2020,03,30,02,26,7.30
2020,03,30,02,27,7.30
2020,03,30,02,28,7.40
2020,03,30,02,29,7.40
2020,03,30,02,30,7.50
2020,03,30,02,31,7.60
2020,03,30,02,32,7.60
2020,03,30,02,33,7.60
2020,03,30,02,34,7.70
2020,03,30,02,35,7.70
2020,03,30,02,36,7.80
2020,03,30,02,37,7.80
2020,03,30,02,38,7.80
2020,03,30,02,39,7.80
2020,03,30,02,40,7.80
2020,03,30,02,41,7.80
2020,03,30,02,42,7.90
2020,03,30,02,43,7.90
2020,03,30,02,44,7.90
2020,03,30,02,45,7.90
2020,03,30,02,46,7.90
2020,03,30,02,47,7.90
2020,03,30,02,48,7.90
2020,03,30,02,49,7.90
2020,03,30,02,50,7.90
2020,03,30,02,51,7.90
2020,03,30,02,52,7.90
2020,03,30,02,53,7.90
2020,03,30,02,54,7.90
2020,03,30,02,55,8.00
2020,03,30,02,56,8.00
2020,03,30,02,57,8.00
2020,03,30,02,58,8.00
2020,03,30,02,59,8.00
2020,03,30,03,00,8.00
2020,03,30,03,01,8.00
2020,03,30,03,02,8.00
2020,03,30,03,03,8.00
2020,03,30,03,04,8.00
2020,03,30,03,05,8.00
2020,03,30,03,06,8.00
2020,03,30,03,07,8.00
2020,03,30,03,08,8.00
2020,03,30,03,09,8.00
2020,03,30,03,10,8.00
2020,03,30,03,11,8.00
2020,03,30,03,12,8.00
2020,03,30,03,13,8.00
2020,03,30,03,14,8.00
2020,03,30,03,15,8.00
2020,03,30,03,16,8.00
2020,03,30,03,17,8.00
2020,03,30,03,18,8.00
2020,03,30,03,19,8.00
2020,03,30,03,20,8.00
2020,03,30,03,21,8.00
2020,03,30,03,22,8.00
2020,03,30,03,23,8.00
2020,03,30,03,24,7.90
2020,03,30,03,25,7.90
2020,03,30,03,26,7.90
2020,03,30,03,27,7.90
2020,03,30,03,28,7.90
2020,03,30,03,29,7.90
2020,03,30,03,30,7.90
2020,03,30,03,31,7.90
2020,03,30,03,32,7.90
2020,03,30,03,33,7.90
2020,03,30,03,34,7.90
2020,03,30,03,35,7.90
2020,03,30,03,36,7.90
2020,03,30,03,37,7.90
2020,03,30,03,38,7.90
2020,03,30,03,39,7.90
2020,03,30,03,40,7.90
2020,03,30,03,41,7.90
2020,03,30,03,42,7.90
2020,03,30,03,43,7.90
2020,03,30,03,44,7.90
2020,03,30,03,45,7.90
2020,03,30,03,46,7.90
2020,03,30,03,47,7.80
2020,03,30,03,48,7.80
2020,03,30,03,49,7.80
2020,03,30,03,50,7.80
2020,03,30,03,51,7.80
2020,03,30,03,52,7.80
2020,03,30,03,53,7.80
2020,03,30,03,54,7.80
2020,03,30,03,55,7.80
2020,03,30,03,56,7.80
2020,03,30,03,57,7.80
2020,03,30,03,58,7.80
2020,03,30,03,59,7.80
2020,03,30,04,00,7.80
2020,03,30,04,01,7.80
2020,03,30,04,02,7.80
2020,03,30,04,03,7.80
2020,03,30,04,04,7.70
2020,03,30,04,05,7.70
2020,03,30,04,06,7.60
2020,03,30,04,07,7.60
2020,03,30,04,08,7.50
2020,03,30,04,09,7.50
2020,03,30,04,10,7.50
2020,03,30,04,11,7.50
2020,03,30,04,12,7.40
2020,03,30,04,13,7.40
2020,03,30,04,14,7.40
2020,03,30,04,15,7.40
2020,03,30,04,16,7.30
2020,03,30,04,17,7.30
2020,03,30,04,18,7.30
2020,03,30,04,19,7.30
2020,03,30,04,20,7.20
2020,03,30,04,21,7.20
2020,03,30,04,22,7.20
2020,03,30,04,23,7.10
2020,03,30,04,24,7.10
2020,03,30,04,25,7.00
2020,03,30,04,26,7.00
2020,03,30,04,27,7.00
2020,03,30,04,28,6.90
2020,03,30,04,29,6.80
2020,03,30,04,30,6.80
2020,03,30,04,31,6.70
2020,03,30,04,32,6.70
2020,03,30,04,33,6.60
2020,03,30,04,34,6.60
2020,03,30,04,35,6.60
2020,03,30,04,36,6.60
2020,03,30,04,37,6.50
2020,03,30,04,38,6.50
2020,03,30,04,39,6.50
2020,03,30,04,40,6.50
2020,03,30,04,41,6.50
2020,03,30,04,42,6.50
2020,03,30,04,43,6.40
2020,03,30,04,44,6.40
2020,03,30,04,45,6.40
2020,03,30,04,46,6.40
2020,03,30,04,47,6.40
2020,03,30,04,48,6.40
2020,03,30,04,49,6.40
2020,03,30,04,50,6.40
2020,03,30,04,51,6.30
2020,03,30,04,52,6.30
2020,03,30,04,53,6.30
2020,03,30,04,54,6.30
2020,03,30,04,55,6.30
2020,03,30,04,56,6.30
2020,03,30,04,57,6.30
2020,03,30,04,58,6.30
2020,03,30,04,59,6.30
2020,03,30,05,00,6.20
2020,03,30,05,01,6.20
2020,03,30,05,02,6.20
2020,03,30,05,03,6.10
2020,03,30,05,04,6.10
2020,03,30,05,05,6.10
2020,03,30,05,06,6.00
2020,03,30,05,07,6.00
2020,03,30,05,08,6.00
2020,03,30,05,09,5.90
2020,03,30,05,10,5.90
2020,03,30,05,11,5.90
2020,03,30,05,12,5.80
2020,03,30,05,13,5.80
2020,03,30,05,14,5.80
2020,03,30,05,15,5.80
2020,03,30,05,16,5.80
2020,03,30,05,17,5.70
2020,03,30,05,18,5.70
2020,03,30,05,19,5.70
2020,03,30,05,20,5.70
2020,03,30,05,21,5.70
2020,03,30,05,22,5.70
2020,03,30,05,23,5.70
2020,03,30,05,24,5.70
2020,03,30,05,25,5.70
2020,03,30,05,26,5.70
2020,03,30,05,27,5.70
2020,03,30,05,28,5.70
2020,03,30,05,29,5.70
2020,03,30,05,30,5.70
2020,03,30,05,31,5.70
2020,03,30,05,32,5.60
2020,03,30,05,33,5.60
2020,03,30,05,34,5.60
2020,03,30,05,35,5.60
2020,03,30,05,36,5.60
2020,03,30,05,37,5.60
2020,03,30,05,38,5.60
2020,03,30,05,39,5.60
2020,03,30,05,40,5.60
2020,03,30,05,41,5.60
2020,03,30,05,42,5.60
2020,03,30,05,43,5.60
2020,03,30,05,44,5.60
2020,03,30,05,45,5.70
2020,03,30,05,46,5.70
2020,03,30,05,47,5.70
2020,03,30,05,48,5.60
2020,03,30,05,49,5.60
2020,03,30,05,50,5.60
2020,03,30,05,51,5.60
2020,03,30,05,52,5.60
2020,03,30,05,53,5.60
2020,03,30,05,54,5.60
2020,03,30,05,55,5.60
2020,03,30,05,56,5.60
2020,03,30,05,57,5.60
2020,03,30,05,58,5.60
2020,03,30,05,59,5.60
2020,03,30,06,00,5.60
2020,03,30,06,01,5.60
2020,03,30,06,02,5.60
2020,03,30,06,03,5.60
2020,03,30,06,04,5.60
2020,03,30,06,05,5.60
2020,03,30,06,06,5.60
2020,03,30,06,07,5.60
2020,03,30,06,08,5.60
2020,03,30,06,09,5.60
2020,03,30,06,10,5.60
2020,03,30,06,11,5.60
2020,03,30,06,12,5.60
2020,03,30,06,13,5.60
2020,03,30,06,14,5.50
2020,03,30,06,15,5.50
2020,03,30,06,16,5.40
2020,03,30,06,17,5.40
2020,03,30,06,18,5.40
2020,03,30,06,19,5.30
2020,03,30,06,20,5.30
2020,03,30,06,21,5.20
2020,03,30,06,22,5.20
2020,03,30,06,23,5.20
2020,03,30,06,24,5.10
2020,03,30,06,25,5.10
2020,03,30,06,26,5.10
2020,03,30,06,27,5.00
2020,03,30,06,28,5.00
2020,03,30,06,29,4.90
2020,03,30,06,30,4.90
2020,03,30,06,31,4.80
2020,03,30,06,32,4.80
2020,03,30,06,33,4.80
2020,03,30,06,34,4.80
2020,03,30,06,35,4.70
2020,03,30,06,36,4.70
2020,03,30,06,37,4.70
2020,03,30,06,38,4.70
2020,03,30,06,39,4.70
2020,03,30,06,40,4.70
2020,03,30,06,41,4.70
2020,03,30,06,42,4.70
2020,03,30,06,43,4.70
2020,03,30,06,44,4.70
2020,03,30,06,45,4.70
2020,03,30,06,46,4.70
2020,03,30,06,47,4.70
2020,03,30,06,48,4.70
2020,03,30,06,49,4.70
2020,03,30,06,50,4.70
2020,03,30,06,51,4.70
2020,03,30,06,52,4.70
2020,03,30,06,53,4.70
2020,03,30,06,54,4.70
2020,03,30,06,55,4.70
2020,03,30,06,56,4.70
2020,03,30,06,57,4.70
2020,03,30,06,58,4.70
2020,03,30,06,59,4.70
2020,03,30,07,00,4.70
2020,03,30,07,01,4.70
2020,03,30,07,02,4.80
2020,03,30,07,03,4.80
2020,03,30,07,04,4.80
2020,03,30,07,05,4.80
2020,03,30,07,06,4.90
2020,03,30,07,07,4.90
2020,03,30,07,08,4.90
2020,03,30,07,09,4.90
2020,03,30,07,10,4.90
2020,03,30,07,11,5.00
2020,03,30,07,12,5.00
2020,03,30,07,13,5.00
2020,03,30,07,14,5.00
2020,03,30,07,15,5.10
2020,03,30,07,16,5.10
2020,03,30,07,17,5.10
2020,03,30,07,18,5.10
2020,03,30,07,19,5.10
2020,03,30,07,20,5.00
2020,03,30,07,21,5.00
2020,03,30,07,22,5.10
2020,03,30,07,23,5.10
2020,03,30,07,24,5.10
2020,03,30,07,25,5.10
2020,03,30,07,26,5.10
2020,03,30,07,27,5.10
2020,03,30,07,28,5.10
2020,03,30,07,29,5.10
2020,03,30,07,30,5.10
2020,03,30,07,31,5.10
2020,03,30,07,32,5.20
2020,03,30,07,33,5.20
2020,03,30,07,34,5.20
2020,03,30,07,35,5.20
2020,03,30,07,36,5.20
2020,03,30,07,37,5.20
2020,03,30,07,38,5.20
2020,03,30,07,39,5.30
2020,03,30,07,40,5.20
2020,03,30,07,41,5.20
2020,03,30,07,42,5.20
2020,03,30,07,43,5.20
2020,03,30,07,44,5.20
2020,03,30,07,45,5.20
2020,03,30,07,46,5.20
2020,03,30,07,47,5.20
2020,03,30,07,48,5.10
2020,03,30,07,49,5.10
2020,03,30,07,50,5.10
2020,03,30,07,51,5.00
2020,03,30,07,52,5.00
2020,03,30,07,53,4.90
2020,03,30,07,54,4.90
2020,03,30,07,55,4.90
2020,03,30,07,56,4.80
2020,03,30,07,57,4.80
2020,03,30,07,58,4.80
2020,03,30,07,59,4.80
2020,03,30,08,00,4.80
2020,03,30,08,01,4.80
2020,03,30,08,02,4.80
2020,03,30,08,03,4.80
2020,03,30,08,04,4.80
2020,03,30,08,05,4.80
2020,03,30,08,06,4.80
2020,03,30,08,07,4.80
2020,03,30,08,08,4.80
2020,03,30,08,09,4.80
2020,03,30,08,10,4.80
2020,03,30,08,11,4.80
2020,03,30,08,12,4.80
2020,03,30,08,13,4.80
2020,03,30,08,14,4.80
2020,03,30,08,15,4.90
2020,03,30,08,16,4.90
2020,03,30,08,17,4.90
2020,03,30,08,18,4.90
2020,03,30,08,19,4.90
2020,03,30,08,20,4.90
2020,03,30,08,21,4.90
2020,03,30,08,22,4.90
2020,03,30,08,23,4.90
2020,03,30,08,24,4.90
2020,03,30,08,25,4.90
2020,03,30,08,26,4.90
2020,03,30,08,27,5.00
2020,03,30,08,28,5.00
2020,03,30,08,29,5.00
2020,03,30,08,30,5.00
2020,03,30,08,31,5.00
2020,03,30,08,32,5.00
2020,03,30,08,33,5.00
2020,03,30,08,34,5.10
2020,03,30,08,35,5.10
2020,03,30,08,36,5.10
2020,03,30,08,37,5.10
2020,03,30,08,38,5.10
2020,03,30,08,39,5.10
2020,03,30,08,40,5.10
2020,03,30,08,41,5.10
2020,03,30,08,42,5.10
2020,03,30,08,43,5.10
2020,03,30,08,44,5.10
2020,03,30,08,45,5.20
2020,03,30,08,46,5.20
2020,03,30,08,47,5.20
2020,03,30,08,48,5.20
2020,03,30,08,49,5.20
2020,03,30,08,50,5.20
2020,03,30,08,51,5.20
2020,03,30,08,52,5.20
2020,03,30,08,53,5.20
2020,03,30,08,54,5.20
2020,03,30,08,55,5.20
2020,03,30,08,56,5.20
2020,03,30,08,57,5.20
2020,03,30,08,58,5.20
2020,03,30,08,59,5.20
2020,03,30,09,00,5.20
2020,03,30,09,01,5.20
2020,03,30,09,02,5.30
2020,03,30,09,03,5.30
2020,03,30,09,04,5.30
2020,03,30,09,05,5.30
2020,03,30,09,06,5.30
2020,03,30,09,07,5.30
2020,03,30,09,08,5.30
2020,03,30,09,09,5.40
2020,03,30,09,10,5.40
2020,03,30,09,11,5.40
2020,03,30,09,12,5.40
2020,03,30,09,13,5.30
2020,03,30,09,14,5.30
2020,03,30,09,15,5.30
2020,03,30,09,16,5.30
2020,03,30,09,17,5.30
2020,03,30,09,18,5.40
2020,03,30,09,19,5.40
2020,03,30,09,20,5.50
2020,03,30,09,21,5.50
2020,03,30,09,22,5.50
2020,03,30,09,23,5.60
2020,03,30,09,24,5.70
2020,03,30,09,25,5.70
2020,03,30,09,26,5.70
2020,03,30,09,27,5.60
2020,03,30,09,28,5.60
2020,03,30,09,29,5.70
2020,03,30,09,30,5.70
2020,03,30,09,31,5.80
2020,03,30,09,32,5.80
2020,03,30,09,33,5.80
2020,03,30,09,34,5.80
2020,03,30,09,35,5.90
2020,03,30,09,36,5.90
2020,03,30,09,37,5.90
2020,03,30,09,38,5.90
2020,03,30,09,39,5.90
2020,03,30,09,40,6.00
2020,03,30,09,41,6.00
2020,03,30,09,42,6.00
2020,03,30,09,43,6.00
2020,03,30,09,44,6.00
2020,03,30,09,45,6.00
2020,03,30,09,46,6.10
2020,03,30,09,47,6.10
2020,03,30,09,48,6.10
2020,03,30,09,49,6.10
2020,03,30,09,50,6.10
2020,03,30,09,51,6.00
2020,03,30,09,52,6.00
2020,03,30,09,53,6.00
2020,03,30,09,54,6.00
2020,03,30,09,55,6.00
2020,03,30,09,56,6.10
2020,03,30,09,57,6.10
2020,03,30,09,58,6.10
2020,03,30,09,59,6.10
2020,03,30,10,00,6.20
2020,03,30,10,01,6.20
2020,03,30,10,02,6.10
2020,03,30,10,03,6.10
2020,03,30,10,04,6.10
2020,03,30,10,05,6.10
2020,03,30,10,06,6.10
2020,03,30,10,07,6.20
2020,03,30,10,08,6.20
2020,03,30,10,09,6.30
2020,03,30,10,10,6.30
2020,03,30,10,11,6.30
2020,03,30,10,12,6.30
2020,03,30,10,13,6.40
2020,03,30,10,14,6.50
2020,03,30,10,15,6.60
2020,03,30,10,16,6.70
2020,03,30,10,17,6.80
2020,03,30,10,18,6.90
2020,03,30,10,19,6.90
2020,03,30,10,20,6.90
2020,03,30,10,21,6.90
2020,03,30,10,22,6.90
2020,03,30,10,23,7.00
2020,03,30,10,24,7.00
2020,03,30,10,25,7.00
2020,03,30,10,26,7.00
2020,03,30,10,27,7.00
2020,03,30,10,28,7.10
2020,03,30,10,29,7.00
2020,03,30,10,30,6.90
2020,03,30,10,31,6.90
2020,03,30,10,32,6.90
2020,03,30,10,33,7.00
2020,03,30,10,34,7.00
2020,03,30,10,35,7.00
2020,03,30,10,36,7.00
2020,03,30,10,37,7.10
2020,03,30,10,38,7.10
2020,03,30,10,39,7.20
2020,03,30,10,40,7.20
2020,03,30,10,41,7.20
2020,03,30,10,42,7.10
2020,03,30,10,43,7.20
2020,03,30,10,44,7.30
2020,03,30,10,45,7.30
2020,03,30,10,46,7.30
2020,03,30,10,47,7.30
2020,03,30,10,48,7.30
2020,03,30,10,49,7.30
2020,03,30,10,50,7.40
2020,03,30,10,51,7.40
2020,03,30,10,52,7.30
2020,03,30,10,53,7.30
2020,03,30,10,54,7.30
2020,03,30,10,55,7.30
2020,03,30,10,56,7.30
2020,03,30,10,57,7.40
2020,03,30,10,58,7.50
2020,03,30,10,59,7.50
2020,03,30,11,00,7.50
2020,03,30,11,01,7.50
2020,03,30,11,02,7.50
2020,03,30,11,03,7.50
2020,03,30,11,04,7.40
2020,03,30,11,05,7.30
2020,03,30,11,06,7.20
2020,03,30,11,07,7.20
2020,03,30,11,08,7.20
2020,03,30,11,09,7.10
2020,03,30,11,10,7.00
2020,03,30,11,11,6.90
2020,03,30,11,12,6.80
2020,03,30,11,13,6.70
2020,03,30,11,14,6.60
2020,03,30,11,15,6.60
2020,03,30,11,16,6.60
2020,03,30,11,17,6.50
2020,03,30,11,18,6.50
2020,03,30,11,19,6.40
2020,03,30,11,20,6.40
2020,03,30,11,21,6.30
2020,03,30,11,22,6.30
2020,03,30,11,23,6.20
2020,03,30,11,24,6.20
2020,03,30,11,25,6.10
2020,03,30,11,26,6.00
2020,03,30,11,27,6.00
2020,03,30,11,28,5.90
2020,03,30,11,29,5.80
2020,03,30,11,30,5.70
2020,03,30,11,31,5.70
2020,03,30,11,32,5.60
2020,03,30,11,33,5.60
2020,03,30,11,34,5.60
2020,03,30,11,35,5.60
2020,03,30,11,36,5.60
2020,03,30,11,37,5.60
2020,03,30,11,38,5.60
2020,03,30,11,39,5.60
2020,03,30,11,40,5.70
2020,03,30,11,41,5.70
2020,03,30,11,42,5.70
2020,03,30,11,43,5.70
2020,03,30,11,44,5.80
2020,03,30,11,45,5.80
2020,03,30,11,46,5.90
2020,03,30,11,47,5.90
2020,03,30,11,48,5.90
2020,03,30,11,49,5.90
2020,03,30,11,50,5.90
2020,03,30,11,51,5.90
2020,03,30,11,52,5.90
2020,03,30,11,53,5.90
2020,03,30,11,54,5.90
2020,03,30,11,55,5.80
2020,03,30,11,56,5.80
2020,03,30,11,57,5.80
2020,03,30,11,58,5.80
2020,03,30,11,59,5.70
2020,03,30,12,00,5.70
2020,03,30,12,01,5.70
2020,03,30,12,02,5.70
2020,03,30,12,03,5.70
2020,03,30,12,04,5.60
2020,03,30,12,05,5.60
2020,03,30,12,06,5.60
2020,03,30,12,07,5.60
2020,03,30,12,08,5.60
2020,03,30,12,09,5.60
2020,03,30,12,10,5.60
2020,03,30,12,11,5.60
2020,03,30,12,12,5.60
2020,03,30,12,13,5.70
2020,03,30,12,14,5.70
2020,03,30,12,15,5.70
2020,03,30,12,16,5.80
2020,03,30,12,17,5.80
2020,03,30,12,18,5.80
2020,03,30,12,19,5.80
2020,03,30,12,20,5.80
2020,03,30,12,21,5.90
2020,03,30,12,22,5.80
2020,03,30,12,23,5.80
2020,03,30,12,24,5.80
2020,03,30,12,25,5.90
2020,03,30,12,26,5.90
2020,03,30,12,27,6.00
2020,03,30,12,28,6.00
2020,03,30,12,29,6.00
2020,03,30,12,30,6.10
2020,03,30,12,31,6.10
2020,03,30,12,32,6.10
2020,03,30,12,33,6.10
2020,03,30,12,34,6.20
2020,03,30,12,35,6.20
2020,03,30,12,36,6.20
2020,03,30,12,37,6.20
2020,03,30,12,38,6.30
2020,03,30,12,39,6.30
2020,03,30,12,40,6.30
2020,03,30,12,41,6.30
2020,03,30,12,42,6.30
2020,03,30,12,43,6.30
2020,03,30,12,44,6.30
2020,03,30,12,45,6.40
2020,03,30,12,46,6.40
2020,03,30,12,47,6.40
2020,03,30,12,48,6.30
2020,03,30,12,49,6.20
2020,03,30,12,50,6.20
2020,03,30,12,51,6.20
2020,03,30,12,52,6.10
2020,03,30,12,53,6.10
2020,03,30,12,54,6.00
2020,03,30,12,55,6.00
2020,03,30,12,56,5.90
2020,03,30,12,57,5.90
2020,03,30,12,58,5.90
2020,03,30,12,59,5.90
2020,03,30,13,00,5.90
2020,03,30,13,01,5.80
2020,03,30,13,02,5.70
2020,03,30,13,03,5.70
2020,03,30,13,04,5.70
2020,03,30,13,05,5.70
2020,03,30,13,06,5.70
2020,03,30,13,07,5.70
2020,03,30,13,08,5.70
2020,03,30,13,09,5.60
2020,03,30,13,10,5.60
2020,03,30,13,11,5.60
2020,03,30,13,12,5.60
2020,03,30,13,13,5.70
2020,03,30,13,14,5.70
2020,03,30,13,15,5.70
2020,03,30,13,16,5.80
2020,03,30,13,17,5.90
2020,03,30,13,18,5.90
2020,03,30,13,19,5.90
2020,03,30,13,20,5.90
2020,03,30,13,21,5.90
2020,03,30,13,22,6.00
2020,03,30,13,23,6.00
2020,03,30,13,24,6.00
2020,03,30,13,25,6.10
2020,03,30,13,26,6.10
2020,03,30,13,27,6.00
2020,03,30,13,28,6.00
2020,03,30,13,29,6.00
2020,03,30,13,30,5.90
2020,03,30,13,31,5.80
2020,03,30,13,32,5.80
2020,03,30,13,33,5.80
2020,03,30,13,34,5.80
2020,03,30,13,35,5.80
2020,03,30,13,36,5.80
2020,03,30,13,37,5.80
2020,03,30,13,38,5.80
2020,03,30,13,39,5.80
2020,03,30,13,40,5.80
2020,03,30,13,41,5.80
2020,03,30,13,42,5.80
2020,03,30,13,43,5.80
2020,03,30,13,44,5.80
2020,03,30,13,45,5.80
2020,03,30,13,46,5.80
2020,03,30,13,47,5.80
2020,03,30,13,48,5.70
2020,03,30,13,49,5.70
2020,03,30,13,50,5.60
2020,03,30,13,51,5.60
2020,03,30,13,52,5.50
2020,03,30,13,53,5.50
2020,03,30,13,54,5.40
2020,03,30,13,55,5.30
2020,03,30,13,56,5.30
2020,03,30,13,57,5.20
2020,03,30,13,58,5.20
2020,03,30,13,59,5.20
2020,03,30,14,00,5.20
2020,03,30,14,01,5.30
2020,03,30,14,02,5.40
2020,03,30,14,03,5.40
2020,03,30,14,04,5.50
2020,03,30,14,05,5.50
2020,03,30,14,06,5.60
2020,03,30,14,07,5.70
2020,03,30,14,08,5.80
2020,03,30,14,09,5.90
2020,03,30,14,10,6.10
2020,03,30,14,11,6.10
2020,03,30,14,12,6.20
2020,03,30,14,13,6.30
2020,03,30,14,14,6.30
2020,03,30,14,15,6.30
2020,03,30,14,16,6.40
2020,03,30,14,17,6.40
2020,03,30,14,18,6.50
2020,03,30,14,19,6.60
2020,03,30,14,20,6.70
2020,03,30,14,21,6.80
2020,03,30,14,22,6.90
2020,03,30,14,23,6.90
2020,03,30,14,24,6.90
2020,03,30,14,25,7.00
2020,03,30,14,26,7.00
2020,03,30,14,27,7.00
2020,03,30,14,28,7.10
2020,03,30,14,29,7.10
2020,03,30,14,30,7.10
2020,03,30,14,31,7.10
2020,03,30,14,32,7.20
2020,03,30,14,33,7.20
2020,03,30,14,34,7.30
2020,03,30,14,35,7.30
2020,03,30,14,36,7.30
2020,03,30,14,37,7.40
2020,03,30,14,38,7.40
2020,03,30,14,39,7.50
2020,03,30,14,40,7.50
2020,03,30,14,41,7.60
2020,03,30,14,42,7.70
2020,03,30,14,43,7.70
2020,03,30,14,44,7.70
2020,03,30,14,45,7.70
2020,03,30,14,46,7.70
2020,03,30,14,47,7.70
2020,03,30,14,48,7.80
2020,03,30,14,49,7.80
2020,03,30,14,50,7.80
2020,03,30,14,51,7.80
2020,03,30,14,52,7.80
2020,03,30,14,53,7.80
2020,03,30,14,54,7.90
2020,03,30,14,55,7.90
2020,03,30,14,56,7.80
2020,03,30,14,57,7.80
2020,03,30,14,58,7.80
2020,03,30,14,59,7.80
2020,03,30,15,00,7.90
2020,03,30,15,01,8.00
2020,03,30,15,02,8.00
2020,03,30,15,03,8.00
2020,03,30,15,04,8.10
2020,03,30,15,05,8.10
2020,03,30,15,06,8.10
2020,03,30,15,07,8.20
2020,03,30,15,08,8.10
2020,03,30,15,09,8.10
2020,03,30,15,10,8.10
2020,03,30,15,11,8.10
2020,03,30,15,12,8.10
2020,03,30,15,13,8.10
2020,03,30,15,14,8.10
2020,03,30,15,15,8.00
2020,03,30,15,16,8.00
2020,03,30,15,17,8.10
2020,03,30,15,18,8.00
2020,03,30,15,19,8.00
2020,03,30,15,20,8.00
2020,03,30,15,21,8.10
2020,03,30,15,22,8.10
2020,03,30,15,23,8.10
2020,03,30,15,24,8.10
2020,03,30,15,25,8.10
2020,03,30,15,26,8.10
2020,03,30,15,27,8.10
2020,03,30,15,28,8.10
2020,03,30,15,29,8.10
2020,03,30,15,30,8.00
2020,03,30,15,31,8.00
2020,03,30,15,32,8.00
2020,03,30,15,33,7.90
2020,03,30,15,34,7.90
2020,03,30,15,35,7.80
2020,03,30,15,36,7.80
2020,03,30,15,37,7.80
2020,03,30,15,38,7.70
2020,03,30,15,39,7.70
2020,03,30,15,40,7.50
2020,03,30,15,41,7.40
2020,03,30,15,42,7.30
2020,03,30,15,43,7.30
2020,03,30,15,44,7.30
2020,03,30,15,45,7.20
2020,03,30,15,46,7.10
2020,03,30,15,47,7.00
2020,03,30,15,48,6.90
2020,03,30,15,49,6.70
2020,03,30,15,50,6.60
2020,03,30,15,51,6.50
2020,03,30,15,52,6.40
2020,03,30,15,53,6.40
2020,03,30,15,54,6.30
2020,03,30,15,55,6.20
2020,03,30,15,56,6.20
2020,03,30,15,57,6.10
2020,03,30,15,58,6.10
2020,03,30,15,59,6.10
2020,03,30,16,00,6.10
2020,03,30,16,01,6.10
2020,03,30,16,02,6.10
2020,03,30,16,03,6.10
2020,03,30,16,04,6.10
2020,03,30,16,05,6.10
2020,03,30,16,06,6.10
2020,03,30,16,07,6.10
2020,03,30,16,08,6.10
2020,03,30,16,09,6.10
2020,03,30,16,10,6.10
2020,03,30,16,11,6.10
2020,03,30,16,12,6.00
2020,03,30,16,13,6.10
2020,03,30,16,14,6.10
2020,03,30,16,15,6.10
2020,03,30,16,16,6.10
2020,03,30,16,17,6.20
2020,03,30,16,18,6.20
2020,03,30,16,19,6.20
2020,03,30,16,20,6.30
2020,03,30,16,21,6.30
2020,03,30,16,22,6.30
2020,03,30,16,23,6.40
2020,03,30,16,24,6.50
2020,03,30,16,25,6.50
2020,03,30,16,26,6.60
2020,03,30,16,27,6.60
2020,03,30,16,28,6.60
2020,03,30,16,29,6.60
2020,03,30,16,30,6.60
2020,03,30,16,31,6.70
2020,03,30,16,32,6.70
2020,03,30,16,33,6.70
2020,03,30,16,34,6.80
2020,03,30,16,35,6.80
2020,03,30,16,36,6.80
2020,03,30,16,37,6.80
2020,03,30,16,38,6.90
2020,03,30,16,39,6.90
2020,03,30,16,40,6.90
2020,03,30,16,41,6.90
2020,03,30,16,42,6.90
2020,03,30,16,43,7.00
2020,03,30,16,44,7.00
2020,03,30,16,45,7.10
2020,03,30,16,46,7.20
2020,03,30,16,47,7.20
2020,03,30,16,48,7.20
2020,03,30,16,49,7.30
2020,03,30,16,50,7.20
2020,03,30,16,51,7.20
2020,03,30,16,52,7.20
2020,03,30,16,53,7.20
2020,03,30,16,54,7.20
2020,03,30,16,55,7.30
2020,03,30,16,56,7.30
2020,03,30,16,57,7.30
2020,03,30,16,58,7.20
2020,03,30,16,59,7.20
2020,03,30,17,00,7.20
2020,03,30,17,01,7.20
2020,03,30,17,02,7.20
2020,03,30,17,03,7.20
2020,03,30,17,04,7.20
2020,03,30,17,05,7.20
2020,03,30,17,06,7.20
2020,03,30,17,07,7.20
2020,03,30,17,08,7.20
2020,03,30,17,09,7.20
2020,03,30,17,10,7.20
2020,03,30,17,11,7.30
2020,03,30,17,12,7.30
2020,03,30,17,13,7.40
2020,03,30,17,14,7.50
2020,03,30,17,15,7.50
2020,03,30,17,16,7.50
2020,03,30,17,17,7.50
2020,03,30,17,18,7.50
2020,03,30,17,19,7.50
2020,03,30,17,20,7.50
2020,03,30,17,21,7.60
2020,03,30,17,22,7.60
2020,03,30,17,23,7.60
2020,03,30,17,24,7.60
2020,03,30,17,25,7.60
2020,03,30,17,26,7.60
2020,03,30,17,27,7.60
2020,03,30,17,28,7.60
2020,03,30,17,29,7.60
2020,03,30,17,30,7.50
2020,03,30,17,31,7.50
2020,03,30,17,32,7.50
2020,03,30,17,33,7.50
2020,03,30,17,34,7.50
2020,03,30,17,35,7.50
2020,03,30,17,36,7.60
2020,03,30,17,37,7.60
2020,03,30,17,38,7.60
2020,03,30,17,39,7.70
2020,03,30,17,40,7.70
2020,03,30,17,41,7.70
2020,03,30,17,42,7.70
2020,03,30,17,43,7.70
2020,03,30,17,44,7.70
2020,03,30,17,45,7.70
2020,03,30,17,46,7.60
2020,03,30,17,47,7.60
2020,03,30,17,48,7.60
2020,03,30,17,49,7.60
2020,03,30,17,50,7.60
2020,03,30,17,51,7.60
2020,03,30,17,52,7.60
2020,03,30,17,53,7.60
2020,03,30,17,54,7.60
2020,03,30,17,55,7.50
2020,03,30,17,56,7.50
2020,03,30,17,57,7.40
2020,03,30,17,58,7.40
2020,03,30,17,59,7.30
2020,03,30,18,00,7.30
2020,03,30,18,01,7.20
2020,03,30,18,02,7.20
2020,03,30,18,03,7.20
2020,03,30,18,04,7.20
2020,03,30,18,05,7.20
2020,03,30,18,06,7.10